User: anonymous   Login
Location: Vancouver
(49.2500°N, 123.1330°W)
Time: 18:13:22
(UTC-07:00)
Language:

Cosmos 676 Rocket - Orbit

View from above orbital plane
View from above orbital plane
View from above satellite
View from above satellite

Ground track
Ground track

The orbit data is extracted from the following two-line orbital elements,

1 07434U 74071B   15141.55533990  .00000087  00000-0  38577-4 0  9997
2 07434 074.0458 165.2110 0022091 263.5510 096.3128 14.36467585127918
Epoch (UTC): 21 May 2015 13:19:41
Eccentricity: 0.0022091
inclination: 74.0458°
perigee height: 754 km
apogee height: 786 km
right ascension of ascending node: 165.2110°
argument of perigee: 263.5510°
revolutions per day: 14.36467585
mean anomaly at epoch: 96.3128°
orbit number at epoch: 12791

The dashed part of the orbit path shows where the satellite is in the earth's shadow,  

DLR